| time (UTC) | temp F | wind direction | speed MPH | gust MPH | rain 1hr in | rain 24hr in | rain mn in | humidity % | barometer mb |
| 20260505124614 | 71 | 90 | 3.0 | 4.0 | 0.00 | 0.00 | 0.00 | 82 | 1007.2 |
| 20260505123637 | 71 | 315 | 3.0 | 7.0 | 0.00 | 0.00 | 0.00 | 82 | 1006.7 |
| 20260505122614 | 71 | 180 | 4.0 | 7.0 | 0.00 | 0.00 | 0.00 | 82 | 1006.8 |
| 20260505121637 | 71 | 135 | 1.0 | 3.0 | 0.00 | 0.00 | 0.00 | 82 | 1006.6 |
| 20260505120613 | 70 | 225 | 6.0 | 9.0 | 0.00 | 0.00 | 0.00 | 82 | 1006.5 |
| 20260505115637 | 70 | 135 | 2.0 | 4.0 | 0.00 | 0.00 | 0.00 | 83 | 1006.7 |
| 20260505114613 | 70 | 45 | 3.0 | 5.0 | 0.00 | 0.00 | 0.00 | 83 | 1006.6 |
| 20260505113637 | 70 | 23 | 3.0 | 3.0 | 0.00 | 0.00 | 0.00 | 83 | 1006.5 |
| 20260505112613 | 70 | 135 | 2.0 | 3.0 | 0.00 | 0.00 | 0.00 | 83 | 1006.2 |
| 20260505111637 | 70 | 180 | 3.0 | 3.0 | 0.00 | 0.00 | 0.00 | 82 | 1006.3 |
| 20260505110614 | 70 | 135 | 2.0 | 4.0 | 0.00 | 0.00 | 0.00 | 82 | 1006.3 |
| 20260505101637 | 71 | 90 | 5.0 | 7.0 | 0.00 | 0.00 | 0.00 | 81 | 1006.3 |
| 20260505100613 | 71 | 23 | 3.0 | 5.0 | 0.00 | 0.00 | 0.00 | 81 | 1006.3 |
| 20260505095657 | 70 | 135 | 3.0 | 6.0 | 0.00 | 0.00 | 0.00 | 82 | 1006.4 |
| 20260505094613 | 70 | 135 | 3.0 | 5.0 | 0.00 | 0.00 | 0.00 | 82 | 1006.5 |
| 20260505093637 | 70 | 180 | 7.0 | 11.0 | 0.00 | 0.00 | 0.00 | 82 | 1006.6 |
| 20260505092613 | 70 | 135 | 4.0 | 7.0 | 0.00 | 0.00 | 0.00 | 82 | 1006.7 |
| 20260505091657 | 70 | 158 | 6.0 | 11.0 | 0.00 | 0.00 | 0.00 | 82 | 1006.8 |
| 20260505090613 | 70 | 203 | 2.0 | 3.0 | 0.00 | 0.00 | 0.00 | 82 | 1006.6 |
| 20260505085657 | 70 | 135 | 4.0 | 6.0 | 0.00 | 0.00 | 0.00 | 82 | 1006.5 |
| 20260505084614 | 70 | 135 | 3.0 | 5.0 | 0.00 | 0.00 | 0.00 | 82 | 1006.6 |
| 20260505083637 | 70 | 180 | 3.0 | 5.0 | 0.00 | 0.00 | 0.00 | 81 | 1006.5 |
| 20260505082613 | 70 | 158 | 5.0 | 7.0 | 0.00 | 0.00 | 0.00 | 81 | 1006.6 |
| 20260505081637 | 70 | 135 | 3.0 | 4.0 | 0.00 | 0.00 | 0.00 | 81 | 1006.7 |
| 20260505075637 | 70 | 45 | 3.0 | 4.0 | 0.00 | 0.00 | 0.00 | 80 | 1006.8 |
| 20260505074613 | 71 | 180 | 3.0 | 7.0 | 0.00 | 0.00 | 0.00 | 79 | 1007.0 |
| 20260505073637 | 71 | 225 | 6.0 | 12.0 | 0.00 | 0.00 | 0.00 | 79 | 1007.3 |
| 20260505072613 | 71 | 90 | 5.0 | 13.0 | 0.00 | 0.00 | 0.00 | 78 | 1007.4 |
| 20260505071637 | 71 | 225 | 4.0 | 6.0 | 0.00 | 0.00 | 0.00 | 78 | 1007.7 |
| 20260505070633 | 71 | 225 | 5.0 | 7.0 | 0.00 | 0.00 | 0.00 | 77 | 1007.6 |
| 20260505065657 | 71 | 180 | 3.0 | 5.0 | 0.00 | 0.00 | 0.00 | 76 | 1007.8 |
| 20260505064633 | 71 | 45 | 2.0 | 3.0 | 0.00 | 0.00 | 0.00 | 76 | 1007.9 |
| 20260505063637 | 71 | 225 | 3.0 | 4.0 | 0.00 | 0.00 | 0.00 | 75 | 1007.9 |
| 20260505062613 | 71 | 180 | 2.0 | 4.0 | 0.00 | 0.00 | 0.00 | 75 | 1007.9 |
| 20260505061637 | 71 | 180 | 3.0 | 4.0 | 0.00 | 0.00 | 0.00 | 75 | 1007.9 |
| 20260505060613 | 71 | 135 | 5.0 | 8.0 | 0.00 | 0.00 | 0.00 | 74 | 1008.0 |
| 20260505055637 | 71 | 135 | 7.0 | 9.0 | 0.00 | 0.00 | 0.00 | 74 | 1008.0 |
| 20260505054633 | 71 | 180 | 2.0 | 3.0 | 0.00 | 0.00 | 0.00 | 74 | 1008.4 |
| 20260505053200 | 71 | 158 | 6.0 | 10.0 | 0.00 | 0.00 | 0.00 | 73 | 1008.3 |
| 20260505052128 | 71 | 180 | 2.0 | 3.0 | 0.00 | 0.00 | 0.00 | 73 | 1008.6 |
| 20260505050616 | 71 | 90 | 2.0 | 3.0 | 0.00 | 0.00 | 0.00 | 73 | 1008.5 |
| 20260505041641 | 72 | 338 | 2.0 | 3.0 | 0.00 | 0.00 | 0.00 | 71 | 1008.5 |
| 20260505040616 | 72 | 180 | 2.0 | 3.0 | 0.00 | 0.00 | 0.00 | 71 | 1008.5 |
| 20260505035640 | 72 | 90 | 2.0 | 4.0 | 0.00 | 0.00 | 0.00 | 71 | 1008.7 |
| 20260505034616 | 72 | 225 | 4.0 | 8.0 | 0.00 | 0.00 | 0.00 | 71 | 1008.5 |
| 20260505033641 | 72 | 135 | 4.0 | 6.0 | 0.00 | 0.00 | 0.00 | 71 | 1008.5 |
| 20260505032616 | 72 | 135 | 1.0 | 3.0 | 0.00 | 0.00 | 0.00 | 71 | 1008.8 |
| 20260505031641 | 72 | 135 | 2.0 | 3.0 | 0.00 | 0.00 | 0.00 | 71 | 1008.7 |
| 20260505030616 | 72 | 135 | 1.0 | 2.0 | 0.00 | 0.00 | 0.00 | 70 | 1008.5 |
| 20260505025640 | 72 | 90 | 2.0 | 3.0 | 0.00 | 0.00 | 0.00 | 70 | 1008.7 |
| 20260505024616 | 73 | 270 | 2.0 | 3.0 | 0.00 | 0.00 | 0.00 | 65 | 1008.8 |
| 20260505023640 | 73 | 135 | 2.0 | 3.0 | 0.00 | 0.00 | 0.00 | 65 | 1008.7 |
| 20260505022617 | 73 | 135 | 4.0 | 7.0 | 0.00 | 0.00 | 0.00 | 65 | 1008.7 |
| 20260505021701 | 73 | 135 | 1.0 | 2.0 | 0.00 | 0.00 | 0.00 | 64 | 1008.5 |
| 20260505020617 | 74 | 158 | 3.0 | 3.0 | 0.00 | 0.00 | 0.00 | 64 | 1008.5 |
| 20260505015641 | 74 | 270 | 3.0 | 3.0 | 0.00 | 0.00 | 0.00 | 63 | 1008.5 |
| 20260505014617 | 74 | 90 | 1.0 | 3.0 | 0.00 | 0.00 | 0.00 | 62 | 1008.5 |
| 20260505013701 | 74 | 45 | 4.0 | 6.0 | 0.00 | 0.00 | 0.00 | 62 | 1008.4 |
| 20260505012616 | 74 | 225 | 3.0 | 3.0 | 0.00 | 0.00 | 0.00 | 62 | 1008.6 |
| 20260505011640 | 75 | 135 | 2.0 | 3.0 | 0.00 | 0.00 | 0.00 | 61 | 1008.6 |
| 20260505010616 | 75 | 135 | 3.0 | 3.0 | 0.00 | 0.00 | 0.00 | 61 | 1008.2 |
| 20260505005640 | 76 | 135 | 1.0 | 1.0 | 0.00 | 0.00 | 0.00 | 60 | 1008.6 |
| 20260505004616 | 76 | 135 | 4.0 | 6.0 | 0.00 | 0.00 | 0.00 | 60 | 1008.5 |
| 20260505003641 | 76 | 90 | 2.0 | 3.0 | 0.00 | 0.00 | 0.00 | 60 | 1008.7 |
| 20260505002617 | 77 | 180 | 3.0 | 6.0 | 0.00 | 0.00 | 0.00 | 58 | 1008.6 |
| 20260505001643 | 78 | 180 | 4.0 | 7.0 | 0.00 | 0.00 | 0.00 | 56 | 1008.8 |
| 20260505000637 | 79 | 135 | 5.0 | 9.0 | 0.00 | 0.00 | 0.00 | 56 | 1008.6 |
| 20260504235641 | 78 | 180 | 5.0 | 10.0 | 0.00 | 0.00 | 0.00 | 56 | 1008.7 |
| 20260504234616 | 78 | 180 | 4.0 | 7.0 | 0.00 | 0.00 | 0.00 | 56 | 1008.8 |
| 20260504233640 | 78 | 90 | 5.0 | 10.0 | 0.00 | 0.00 | 0.00 | 55 | 1008.6 |
| 20260504232616 | 79 | 225 | 3.0 | 4.0 | 0.00 | 0.00 | 0.00 | 54 | 1008.8 |
| 20260504231700 | 80 | 135 | 5.0 | 7.0 | 0.00 | 0.00 | 0.00 | 52 | 1009.2 |
| 20260504230637 | 82 | 135 | 6.0 | 9.0 | 0.00 | 0.00 | 0.00 | 50 | 1009.0 |
| 20260504225641 | 82 | 180 | 5.0 | 12.0 | 0.00 | 0.00 | 0.00 | 48 | 1009.3 |
| 20260504224617 | 82 | 180 | 3.0 | 4.0 | 0.00 | 0.00 | 0.00 | 48 | 1009.2 |
| 20260504223641 | 83 | 45 | 7.0 | 10.0 | 0.00 | 0.00 | 0.00 | 46 | 1009.1 |
| 20260504222616 | 84 | 180 | 5.0 | 8.0 | 0.00 | 0.00 | 0.00 | 46 | 1009.1 |
| 20260504221640 | 84 | 158 | 5.0 | 7.0 | 0.00 | 0.00 | 0.00 | 48 | 1009.3 |
| 20260504220616 | 83 | 0 | 7.0 | 9.0 | 0.00 | 0.00 | 0.00 | 46 | 1009.5 |
| 20260504215640 | 83 | 135 | 6.0 | 8.0 | 0.00 | 0.00 | 0.00 | 47 | 1009.7 |
| 20260504214617 | 83 | 158 | 5.0 | 9.0 | 0.00 | 0.00 | 0.00 | 47 | 1009.7 |
| 20260504213640 | 84 | 225 | 2.0 | 4.0 | 0.00 | 0.00 | 0.00 | 46 | 1009.7 |
| 20260504212617 | 83 | 0 | 3.0 | 5.0 | 0.00 | 0.00 | 0.00 | 46 | 1010.0 |
| 20260504211640 | 84 | 180 | 7.0 | 11.0 | 0.00 | 0.00 | 0.00 | 44 | 1010.1 |
| 20260504210616 | 84 | 135 | 3.0 | 6.0 | 0.00 | 0.00 | 0.00 | 44 | 1010.4 |
| 20260504205640 | 83 | 90 | 4.0 | 5.0 | 0.00 | 0.00 | 0.00 | 44 | 1010.3 |
| 20260504204617 | 83 | 0 | 4.0 | 7.0 | 0.00 | 0.00 | 0.00 | 42 | 1010.7 |
| 20260504203640 | 84 | 90 | 5.0 | 7.0 | 0.00 | 0.00 | 0.00 | 43 | 1011.0 |
| 20260504202616 | 84 | 135 | 5.0 | 8.0 | 0.00 | 0.00 | 0.00 | 43 | 1011.1 |
| 20260504201640 | 85 | 90 | 1.0 | 2.0 | 0.00 | 0.00 | 0.00 | 44 | 1011.3 |
| 20260504200616 | 83 | 180 | 5.0 | 8.0 | 0.00 | 0.00 | 0.00 | 43 | 1011.4 |
| 20260504195640 | 83 | 180 | 3.0 | 4.0 | 0.00 | 0.00 | 0.00 | 43 | 1011.7 |
| 20260504194616 | 83 | 180 | 5.0 | 7.0 | 0.00 | 0.00 | 0.00 | 42 | 1011.7 |
| 20260504193641 | 82 | 225 | 6.0 | 9.0 | 0.00 | 0.00 | 0.00 | 43 | 1011.7 |
| 20260504192617 | 82 | 225 | 5.0 | 6.0 | 0.00 | 0.00 | 0.00 | 42 | 1011.9 |
| 20260504191641 | 82 | 180 | 8.0 | 11.0 | 0.00 | 0.00 | 0.00 | 41 | 1012.3 |
| 20260504190617 | 82 | 225 | 6.0 | 9.0 | 0.00 | 0.00 | 0.00 | 41 | 1012.4 |
| 20260504185641 | 82 | 180 | 7.0 | 11.0 | 0.00 | 0.00 | 0.00 | 41 | 1012.5 |
| 20260504184616 | 82 | 225 | 5.0 | 7.0 | 0.00 | 0.00 | 0.00 | 40 | 1012.3 |
| 20260504183641 | 82 | 158 | 3.0 | 5.0 | 0.00 | 0.00 | 0.00 | 41 | 1012.6 |
| 20260504182616 | 80 | 135 | 4.0 | 6.0 | 0.00 | 0.00 | 0.00 | 43 | 1012.8 |
| 20260504181641 | 80 | 225 | 3.0 | 6.0 | 0.00 | 0.00 | 0.00 | 43 | 1012.8 |
| 20260504180617 | 80 | 180 | 4.0 | 7.0 | 0.00 | 0.00 | 0.00 | 43 | 1013.1 |
| 20260504175641 | 80 | 180 | 5.0 | 9.0 | 0.00 | 0.00 | 0.00 | 44 | 1013.3 |
| 20260504174616 | 80 | 248 | 7.0 | 14.0 | 0.00 | 0.00 | 0.00 | 44 | 1013.6 |
| 20260504173640 | 79 | 135 | 4.0 | 5.0 | 0.00 | 0.00 | 0.00 | 44 | 1013.7 |
| 20260504172616 | 78 | 270 | 4.0 | 7.0 | 0.00 | 0.00 | 0.00 | 43 | 1014.0 |
| 20260504171640 | 78 | 225 | 6.0 | 9.0 | 0.00 | 0.00 | 0.00 | 45 | 1014.2 |
| 20260504170616 | 78 | 180 | 5.0 | 7.0 | 0.00 | 0.00 | 0.00 | 44 | 1014.5 |
| 20260504150616 | 71 | 180 | 3.0 | 5.0 | 0.00 | 0.00 | 0.00 | 55 | 1015.4 |
| 20260504140657 | 68 | 0 | 3.0 | 6.0 | 0.00 | 0.00 | 0.00 | 61 | 1015.5 |